Starlink 32108

operational
NORAD ID: 59682 Int'l Des: 2024-086 Owner: SPXS Country: US Constellation: starlink
LEOCIRCULAR

Starlink 32108について

説明を読み込み中...

リアルタイム位置

3D地球を読み込み中...

次回通過

高度履歴

Altitude vs Time

uPlot chart will show altitude changes over time

軌道要素

1 59682U 24086A 25352.50327192 .00000331 00000-0 21547-4 0 9996
2 59682 42.9982 161.9991 0000873 259.2626 100.8128 15.27581115 91648
Epoch: Dec 18, 2025 • Age: 11 hours

現在のステータス

高度 484.3 km
速度 7.63 km/s
衛星直下点 31.10°N, 122.44°E
打ち上げ日 May 8, 2024
運用期間 1.6 years
タイプ internet

技術仕様

分類 Payload
質量 730.00 kg
乾燥質量 700.00 kg
総質量 730.00 kg
長さ 0.30 m
直径 4.10 m
スパン 29.00 m
形状 Box + pan
製造者 SPXS
バスタイプ Starlink V2M
フェーズステータス In Orbit
所有者/国 SPXS/US

大規模コンステレーション

Loading constellations...